Content
SEND FEEDBACK

Daily
Averages
Monthly
Summary
United States of America

BROOKHAVEN, NEW YORK


Home > North America > United States > New York
Elevation: 70 feet     Latitude: 40 49N     Longitude: 072 51W

WEATHER
 
SELECT A DAY
Number of Records: 161,749;   Date Range: 9/29/99 - 12/19/14
 
SHARE

PRINT THIS DATA

[ ← Previous Day ]
WEATHER ALMANAC - JANUARY 31, 2013
[ Next Day → ]
[ °C ]   °F
Weather ElementAverageHighLow
Temperature49 °F57.9 °F (1:56 am)30 °F (11:56 pm)
Dewpoint36.9 °F55.4 °F (5:08 am)10.9 °F (10:56 pm)
Humidity67.1 %94 % (5:08 am)32 % (1:56 pm)
Barometer29.34 in29.76 in (11:56 pm)29.11 in (6:56 am)
Wind Speed22.3 mph36.8 mph (4:56 am)
Wind Gust52.9 mph (4:56 am)
Weather ElementAverage
Visibility8.4 mi
Wind DirectionWSW (230.9 °)

Weather ElementTotal
Precipitation1.04 in
Heating Degree Days21.1 (Base 65)
Averaged from 35 records on January 31, 2013
WEATHER CONDITIONS BREAKOUT
WIND DIRECTION BREAKOUT
WEATHER BY HOUR - JANUARY 31, 2013
[ °C ]   °F
Local TimeTemperatureDewpointHumidityBarometerVisibilityWind DirectionWind SpeedGust SpeedPrecipitationEventsConditions
1:23 AM57.2 °F53.6 °F88 %29.38 in9.0 miSouth (180°)23.0 mph43.7 mphOvercast
1:56 AM57.9 °F54.0 °F87 %29.36 in9.0 miSouth (180°)24.2 mph43.7 mphOvercast
2:56 AM57.0 °F53.1 °F87 %29.27 in8.0 miSouth (170°)27.6 mph42.6 mphOvercast
3:04 AM57.2 °F53.6 °F88 %29.26 in8.0 miSouth (180°)25.3 mph41.4 mphOvercast
3:14 AM57.2 °F53.6 °F88 %29.25 in8.0 miSouth (180°)27.6 mph44.9 mphOvercast
3:54 AM57.2 °F53.6 °F88 %29.20 in7.0 miSouth (180°)28.8 mph47.2 mph0.00 inRainLight Rain
3:56 AM57.0 °F54.0 °F89 %29.20 in7.0 miSouth (170°)31.1 mph47.2 mph0.00 inRainLight Rain
4:56 AM57.0 °F55.0 °F93 %29.12 in3.0 miSouth (180°)36.8 mph52.9 mph0.13 inOvercast
5:08 AM57.2 °F55.4 °F94 %29.15 in2.0 miSouth (190°)28.8 mph49.5 mph0.09 inOvercast
5:28 AM57.2 °F55.4 °F94 %29.19 in4.0 miSSW (210°)26.5 mph43.7 mph0.19 inRainHeavy Rain
5:43 AM55.4 °F53.6 °F94 %29.19 in4.0 miSSW (210°)19.6 mph35.7 mph0.25 inRainLight Rain
5:56 AM55.0 °F52.0 °F89 %29.15 in6.0 miSW (220°)17.3 mph25.3 mph0.27 inRainRain
6:15 AM53.6 °F51.8 °F94 %29.16 in8.0 miSSW (200°)20.7 mph26.5 mph0.01 inOvercast
6:44 AM51.8 °F50.0 °F94 %29.13 in6.0 miSouth (190°)18.4 mph29.9 mph0.05 inRainLight Rain
6:56 AM52.0 °F50.0 °F93 %29.11 in7.0 miSouth (190°)16.1 mph27.6 mph0.05 inRainLight Rain
7:38 AM51.8 °F50.0 °F94 %29.12 in9.0 miSSW (210°)19.6 mph32.2 mph0.00 inOvercast
7:53 AM51.8 °F48.2 °F88 %29.14 in9.0 miSW (230°)23.0 mph42.6 mph0.00 inOvercast
7:56 AM52.0 °F48.0 °F86 %29.14 in10.0 miSW (230°)21.9 mph42.6 mph0.00 inOvercast
8:15 AM53.6 °F42.8 °F67 %29.17 in10.0 miWest (280°)28.8 mph43.7 mphOvercast
8:56 AM51.1 °F37.0 °F59 %29.21 in10.0 miWest (260°)20.7 mph34.5 mphMostly Cloudy
9:56 AM51.1 °F33.1 °F50 %29.28 in10.0 miWest (280°)17.3 mph34.5 mphPartly Cloudy
10:56 AM48.0 °F26.1 °F42 %29.34 in10.0 miWest (280°)17.3 mph41.4 mphClear
11:56 AM48.0 °F24.1 °F39 %29.36 in10.0 miWest (270°)24.2 mph34.5 mphClear
12:56 PM48.0 °F21.9 °F36 %29.39 in10.0 miWest (270°)23.0 mph36.8 mphClear
1:56 PM48.0 °F19.0 °F32 %29.42 in10.0 miWest (270°)17.3 mph31.1 mphClear
2:56 PM46.9 °F19.9 °F34 %29.45 in10.0 miWest (270°)17.3 mph28.8 mphPartly Cloudy
3:56 PM44.1 °F17.1 °F34 %29.50 in10.0 miWest (270°)20.7 mph32.2 mphMostly Cloudy
4:56 PM42.1 °F17.1 °F37 %29.54 in10.0 miWest (270°)21.9 mph35.7 mphMostly Cloudy
5:56 PM39.0 °F14.0 °F36 %29.60 in10.0 miWest (260°)17.3 mph27.6 mphClear
6:56 PM37.0 °F15.1 °F41 %29.65 in10.0 miWest (260°)29.9 mph40.3 mphScattered Clouds
7:56 PM35.1 °F12.0 °F39 %29.69 in10.0 miWest (270°)18.4 mph33.4 mphClear
8:56 PM34.0 °F12.0 °F40 %29.71 in10.0 miWest (270°)18.4 mph26.5 mphClear
9:56 PM33.1 °F14.0 °F46 %29.73 in10.0 miWest (260°)20.7 mph32.2 mphPartly Cloudy
10:56 PM32.0 °F10.9 °F42 %29.74 in10.0 miWest (270°)20.7 mph29.9 mphClear
11:56 PM30.0 °F10.9 °F45 %29.76 in10.0 miWest (270°)10.4 mphClear
Hourly data recorded from KHWV, located miles away from Brookhaven, New York







STORIES FROM OUR PARTNERS